Content
SEND FEEDBACK

Daily
Averages
Monthly
Summary
France

CAEN, FRANCE


Home > Europe > France
Elevation: 220 feet     Latitude: 49 11N     Longitude: 000 27W

WEATHER
 
SELECT A DAY
Number of Records: 216,049;   Date Range: 7/1/96 - 8/31/14
 
SHARE

PRINT THIS DATA

[ ← Previous Day ]
WEATHER ALMANAC - JUNE 19, 2013
[ Next Day → ]
[ °C ]   °F
Weather ElementAverageHighLow
Temperature59.3 °F66.2 °F (2:30 pm)53.6 °F (6:30 am)
Dewpoint55.4 °F60.8 °F (8:30 pm)51.8 °F (7:00 am)
Humidity87.3 %100 % (6:30 am)68 % (4:00 pm)
Barometer29.96 in30.01 in (12:30 am)29.89 in (8:00 pm)
Wind Speed5.8 mph10.4 mph (11:00 am)
Weather ElementAverage
Visibility5.1 mi
Wind DirectionS (182.9 °)

Weather ElementTotal
Precipitation---
Heating Degree Days5.1 (Base 65)
Growing Degree Days9.9 (Base 50)
Averaged from 51 records on June 19, 2013
WEATHER CONDITIONS BREAKOUT
WIND DIRECTION BREAKOUT
WEATHER BY HOUR - JUNE 19, 2013
[ °C ]   °F
Local TimeTemperatureDewpointHumidityBarometerVisibilityWind DirectionWind SpeedGust SpeedPrecipitationEventsConditions
12:30 AM55.4 °F53.6 °F94 %30.01 in5.0 miNNE (20°)5.8 mphOvercast
1:00 AM55.4 °F53.6 °F94 %29.98 in2.5 miNNW (340°)4.6 mphMostly Cloudy
1:30 AM55.4 °F53.6 °F94 %30.01 inWNW (300°)4.6 mphOvercast
2:00 AM55.0 °F54.0 °F93 %30.01 in2.0 miNNW (340°)3.5 mphMist
2:00 AM55.4 °F53.6 °F94 %29.98 inNNW (340°)3.5 mphMostly Cloudy
2:30 AM55.4 °F53.6 °F94 %30.01 in1.7 miNNW (330°)5.8 mphOvercast
3:00 AM55.4 °F53.6 °F94 %29.98 in1.5 miNW (320°)8.1 mphOvercast
3:30 AM55.4 °F53.6 °F94 %29.98 inNNW (330°)5.8 mphOvercast
4:00 AM55.4 °F53.6 °F94 %29.98 inNNW (330°)4.6 mphMostly Cloudy
4:30 AM55.4 °F53.6 °F94 %29.98 in1.2 miEast (90°)8.1 mphRain-ThunderstormHeavy Thunderstorms and Rain
5:00 AM55.4 °F53.6 °F94 %29.98 in1.7 miNorth (360°)5.8 mphMostly Cloudy
5:30 AM55.4 °F53.6 °F94 %29.98 inVariable3.5 mphOvercast
6:00 AM55.4 °F53.6 °F94 %29.98 inVariable3.5 mphOvercast
6:30 AM53.6 °F53.6 °F100 %29.95 inNNW (330°)4.6 mphMist
7:00 AM53.6 °F51.8 °F94 %29.98 in1.2 miNW (320°)6.9 mphPartly Cloudy
7:30 AM53.6 °F53.6 °F100 %29.98 inNW (310°)3.5 mphPartly Cloudy
8:00 AM55.0 °F54.0 °F94 %29.98 in5.0 miNW (320°)4.6 mphScattered Clouds
8:00 AM55.4 °F53.6 °F94 %29.98 in3.1 miNNW (330°)4.6 mphMist
8:30 AM55.4 °F53.6 °F94 %29.95 in5.0 miNorth (350°)4.6 mph
9:00 AM55.4 °F53.6 °F94 %29.98 in6.2 miNNE (30°)3.5 mph
9:30 AM57.2 °F53.6 °F88 %29.95 in6.2 miNorth (10°)5.8 mph
10:00 AM59.0 °F53.6 °F82 %29.95 in6.2 miNorth (350°)6.9 mph
10:30 AM60.8 °F55.4 °F82 %29.98 in6.2 miNorth (360°)6.9 mph
11:00 AM60.8 °F55.4 °F82 %29.95 in6.2 miNNW (340°)10.4 mph
11:30 AM59.0 °F53.6 °F82 %29.98 in6.2 miNNW (340°)6.9 mph
12:00 PM59.0 °F53.6 °F82 %29.98 in6.2 miNorth (350°)9.2 mph
12:30 PM59.0 °F53.6 °F82 %30.01 in6.2 miVariable2.3 mph
1:00 PM59.0 °F53.6 °F82 %30.01 in6.2 miNE (50°)3.5 mphOvercast
1:30 PM60.8 °F55.4 °F82 %29.98 in6.2 miNNE (30°)5.8 mphMostly Cloudy
2:00 PM63.0 °F56.0 °F72 %29.96 in25.0 miNNE (20°)5.8 mphRainLight Rain
2:00 PM62.6 °F57.2 °F82 %29.95 in6.2 miNorth (10°)5.8 mph
2:30 PM66.2 °F57.2 °F73 %29.95 in6.2 miNorth (10°)6.9 mph
3:00 PM64.4 °F55.4 °F73 %29.95 in6.2 miNE (40°)5.8 mph
3:30 PM64.4 °F55.4 °F73 %29.92 in6.2 miNE (50°)10.4 mph
4:00 PM66.2 °F55.4 °F68 %29.92 in6.2 miNNE (30°)6.9 mphPartly Cloudy
4:30 PM66.2 °F55.4 °F68 %29.92 in6.2 miNNE (20°)6.9 mph
5:00 PM64.4 °F57.2 °F77 %29.92 in6.2 miNNE (20°)9.2 mph
5:30 PM64.4 °F55.4 °F73 %29.92 in6.2 miNE (40°)8.1 mph
6:00 PM64.4 °F57.2 °F77 %29.92 in6.2 miNNE (30°)8.1 mph
6:30 PM62.6 °F57.2 °F82 %29.92 in6.2 miNNE (20°)8.1 mph
7:00 PM62.6 °F59.0 °F88 %29.92 in6.2 miNNE (20°)8.1 mph
7:30 PM62.6 °F59.0 °F88 %29.92 in4.3 miNorth (10°)8.1 mphMostly Cloudy
8:00 PM62.0 °F59.0 °F87 %29.91 in4.0 miNorth (10°)6.9 mphRainLight Rain
8:00 PM62.6 °F59.0 °F88 %29.89 in3.7 miNorth (10°)6.9 mphRainLight Rain
8:30 PM62.6 °F60.8 °F94 %29.92 in3.7 miNorth (360°)4.6 mphRainLight Rain
9:00 PM62.6 °F60.8 °F94 %29.92 in3.1 miNorth (360°)3.5 mphMostly Cloudy
9:30 PM62.6 °F60.8 °F94 %29.89 in3.1 miNorth (360°)4.6 mphPartly Cloudy
10:00 PM62.6 °F59.0 °F88 %29.89 inNNW (330°)3.5 mphMist
10:30 PM60.8 °F57.2 °F88 %29.92 inNW (310°)3.5 mphMist
11:00 PM59.0 °F57.2 °F94 %29.92 in1.6 miVariable3.5 mphMist
11:30 PM59.0 °F57.2 °F94 %29.92 in1.5 miNorth (350°)3.5 mphMist
Hourly data recorded from LFRK, located miles away from Caen, France







STORIES FROM OUR PARTNERS